"Period start","avg(HW err(1)/warn(2) (#))","avg(Visibility (m))","avg(Weather code (#))","avg(Precip intensity (mm/h))","min(HW err(1)/warn(2) (#))","max(HW err(1)/warn(2) (#))","std(HW err(1)/warn(2) (#))","med(HW err(1)/warn(2) (#))","min(Visibility (m))","max(Visibility (m))","std(Visibility (m))","med(Visibility (m))","min(Weather code (#))","max(Weather code (#))","std(Weather code (#))","med(Weather code (#))","min(Precip intensity (mm/h))","max(Precip intensity (mm/h))","std(Precip intensity (mm/h))","med(Precip intensity (mm/h))"
2013-07-10 00:00:00,0,49968,0,0.00,0,0,0,0,49685,50000,94,50000,0,0,0,0,0.00,0.00,0.00,0.00
2013-07-10 00:10:00,0,49941,0,0.00,0,0,0,0,49408,50000,178,50000,0,0,0,0,0.00,0.00,0.00,0.00
2013-07-10 00:20:00,0,48888,0,0.00,0,0,0,0,41737,50000,2532,50000,0,0,0,0,0.00,0.00,0.00,0.00
2013-07-10 00:30:00,0,49722,0,0.00,0,0,0,0,47919,50000,636,50000,0,0,0,0,0.00,0.00,0.00,0.00
2013-07-10 00:40:00,0,50000,0,0.00,0,0,0,0,50000,50000,0,50000,0,0,0,0,0.00,0.00,0.00,0.00
2013-07-10 00:50:00,0,49945,0,0.00,0,0,0,0,49453,50000,164,50000,0,0,0,0,0.00,0.00,0.00,0.00
2013-07-10 01:00:00,0,46450,0,0.00,0,0,0,0,33934,50000,5609,50000,0,0,0,0,0.00,0.00,0.00,0.00
2013-07-10 01:10:00,0,47338,0,0.00,0,0,0,0,39356,50000,3439,48508,0,0,0,0,0.00,0.00,0.00,0.00
2013-07-10 01:20:00,0,41558,0,0.00,0,0,0,0,13671,50000,11380,46506,0,0,0,0,0.00,0.00,0.00,0.00
2013-07-10 01:30:00,0,41334,0,0.00,0,0,0,0,22935,50000,8713,44022,0,0,0,0,0.00,0.00,0.00,0.00
2013-07-10 01:40:00,0,49418,0,0.00,0,0,0,0,46198,50000,1231,50000,0,0,0,0,0.00,0.00,0.00,0.00
2013-07-10 01:50:00,0,47750,0,0.00,0,0,0,0,38371,50000,3721,49570,0,0,0,0,0.00,0.00,0.00,0.00
2013-07-10 02:00:00,0,45646,0,0.00,0,2,1,0,39813,50000,3808,45593,0,0,0,0,0.00,0.00,0.00,0.00
2013-07-10 02:10:00,0,48288,0,0.00,0,0,0,0,40198,50000,3053,50000,0,0,0,0,0.00,0.00,0.00,0.00
2013-07-10 02:20:00,0,43777,0,0.00,0,0,0,0,23986,50000,9488,48164,0,0,0,0,0.00,0.00,0.00,0.00
2013-07-10 02:30:00,0,44099,0,0.00,0,0,0,0,38014,50000,4228,44774,0,0,0,0,0.00,0.00,0.00,0.00
2013-07-10 02:40:00,0,43448,0,0.00,0,0,0,0,26970,50000,8704,48240,0,0,0,0,0.00,0.00,0.00,0.00
2013-07-10 02:50:00,0,44689,0,0.00,0,0,0,0,33353,50000,6143,47224,0,0,0,0,0.00,0.00,0.00,0.00
2013-07-10 03:00:00,0,44456,0,0.00,0,0,0,0,36470,50000,4671,45212,0,0,0,0,0.00,0.00,0.00,0.00
2013-07-10 03:10:00,0,48332,0,0.00,0,0,0,0,39941,50000,3064,49908,0,0,0,0,0.00,0.00,0.00,0.00
2013-07-10 03:20:00,0,49223,0,0.00,0,2,1,0,44654,50000,1609,50000,0,0,0,0,0.00,0.00,0.00,0.00
2013-07-10 03:30:00,1,46436,0,0.00,0,2,1,2,38942,50000,3522,47526,0,0,0,0,0.00,0.00,0.00,0.00
2013-07-10 03:40:00,1,45751,0,0.00,0,2,1,0,38299,50000,3440,45642,0,0,0,0,0.00,0.00,0.00,0.00
2013-07-10 03:50:00,0,48594,0,0.00,0,2,1,0,44933,50000,1831,49600,0,0,0,0,0.00,0.00,0.00,0.00
2013-07-10 04:00:00,1,45950,0,0.00,0,2,1,0,30263,50000,5839,47932,0,0,0,0,0.00,0.00,0.00,0.00
2013-07-10 04:10:00,0,48867,0,0.00,0,2,1,0,41505,50000,2538,50000,0,0,0,0,0.00,0.00,0.00,0.00
2013-07-10 04:20:00,2,47875,0,0.00,0,2,1,2,39078,50000,3619,49979,0,0,0,0,0.00,0.00,0.00,0.00
2013-07-10 04:30:00,0,47755,0,0.00,0,0,0,0,40248,50000,2829,48518,0,0,0,0,0.00,0.00,0.00,0.00
2013-07-10 04:40:00,0,40111,0,0.00,0,0,0,0,31062,47919,4816,39228,0,0,0,0,0.00,0.00,0.00,0.00
2013-07-10 04:50:00,0,45880,0,0.00,0,0,0,0,35088,50000,5369,49536,0,0,0,0,0.00,0.00,0.00,0.00
2013-07-10 05:00:00,0,45958,0,0.00,0,0,0,0,35161,50000,4777,47932,0,0,0,0,0.00,0.00,0.00,0.00
2013-07-10 05:10:00,0,49592,0,0.00,0,0,0,0,47540,50000,755,50000,0,0,0,0,0.00,0.00,0.00,0.00
2013-07-10 05:20:00,2,45564,0,0.00,0,2,1,2,40084,50000,3929,46492,0,0,0,0,0.00,0.00,0.00,0.00
2013-07-10 05:30:00,2,43516,0,0.00,0,2,1,2,33982,50000,4289,43310,0,0,0,0,0.00,0.00,0.00,0.00
2013-07-10 05:40:00,0,48586,0,0.00,0,2,1,0,43680,50000,2156,49840,0,0,0,0,0.00,0.00,0.00,0.00
2013-07-10 05:50:00,0,48422,0,0.00,0,0,0,0,42835,50000,2287,49698,0,0,0,0,0.00,0.00,0.00,0.00
2013-07-10 06:00:00,2,48982,0,0.00,0,2,1,2,43737,50000,1987,49977,0,0,0,0,0.00,0.00,0.00,0.00
2013-07-10 06:10:00,2,44749,0,0.00,0,2,1,2,30546,50000,5943,45770,0,0,0,0,0.00,0.00,0.00,0.00
2013-07-10 06:20:00,1,48905,0,0.00,0,2,1,2,43096,50000,2030,50000,0,0,0,0,0.00,0.00,0.00,0.00
2013-07-10 06:30:00,0,48553,0,0.00,0,0,0,0,42483,50000,2296,49540,0,0,0,0,0.00,0.00,0.00,0.00
2013-07-10 06:40:00,0,45397,0,0.00,0,0,0,0,39278,50000,3955,45164,0,0,0,0,0.00,0.00,0.00,0.00
2013-07-10 06:50:00,0,44037,0,0.00,0,0,0,0,33435,50000,4920,45029,0,0,0,0,0.00,0.00,0.00,0.00
2013-07-10 07:00:00,0,49172,0,0.00,0,0,0,0,45178,50000,1478,50000,0,0,0,0,0.00,0.00,0.00,0.00
2013-07-10 07:10:00,0,49696,0,0.00,0,0,0,0,48347,50000,537,50000,0,0,0,0,0.00,0.00,0.00,0.00
2013-07-10 07:20:00,0,47381,0,0.00,0,0,0,0,37092,50000,4063,49515,0,0,0,0,0.00,0.00,0.00,0.00
2013-07-10 07:30:00,0,46413,0,0.00,0,0,0,0,39506,50000,3220,46537,0,0,0,0,0.00,0.00,0.00,0.00
2013-07-10 07:40:00,1,48266,0,0.00,0,2,1,0,43704,50000,2246,50000,0,0,0,0,0.00,0.00,0.00,0.00
2013-07-10 07:50:00,2,48336,0,0.00,2,2,0,2,42510,50000,2488,49794,0,0,0,0,0.00,0.00,0.00,0.00
2013-07-10 08:00:00,2,45724,0,0.00,2,2,0,2,28456,50000,6863,50000,0,0,0,0,0.00,0.00,0.00,0.00
2013-07-10 08:10:00,2,48589,0,0.00,2,2,0,2,43043,50000,2380,49756,0,0,0,0,0.00,0.00,0.00,0.00
2013-07-10 08:20:00,2,49015,0,0.00,2,2,0,2,46089,50000,1217,49498,0,0,0,0,0.00,0.00,0.00,0.00
2013-07-10 08:30:00,2,50000,0,0.00,2,2,0,2,50000,50000,0,50000,0,0,0,0,0.00,0.00,0.00,0.00
2013-07-10 08:40:00,2,49118,0,0.00,2,2,0,2,44454,50000,1814,50000,0,0,0,0,0.00,0.00,0.00,0.00
2013-07-10 08:50:00,2,47379,0,0.00,2,2,0,2,39577,50000,3184,48190,0,0,0,0,0.00,0.00,0.00,0.00
2013-07-10 09:00:00,2,45200,0,0.00,2,2,0,2,32510,50000,5458,47918,0,0,0,0,0.00,0.00,0.00,0.00
2013-07-10 09:10:00,2,49545,0,0.00,2,2,0,2,45579,50000,1323,50000,0,0,0,0,0.00,0.00,0.00,0.00
2013-07-10 09:20:00,2,49758,0,0.00,2,2,0,2,47582,50000,725,50000,0,0,0,0,0.00,0.00,0.00,0.00
2013-07-10 09:30:00,2,46152,0,0.00,2,2,0,2,36155,50000,4507,48224,0,0,0,0,0.00,0.00,0.00,0.00
2013-07-10 09:40:00,2,47922,0,0.00,2,2,0,2,38198,50000,3951,50000,0,0,0,0,0.00,0.00,0.00,0.00
2013-07-10 09:50:00,2,49000,0,0.00,2,2,0,2,42328,50000,2281,50000,0,0,0,0,0.00,0.00,0.00,0.00
2013-07-10 10:00:00,2,50000,0,0.00,2,2,0,2,50000,50000,0,50000,0,0,0,0,0.00,0.00,0.00,0.00
2013-07-10 10:10:00,2,47997,0,0.00,2,2,0,2,36420,50000,4028,50000,0,0,0,0,0.00,0.00,0.00,0.00
2013-07-10 10:20:00,2,49670,0,0.00,2,2,0,2,47326,50000,798,50000,0,0,0,0,0.00,0.00,0.00,0.00
2013-07-10 10:30:00,2,47546,0,0.00,2,2,0,2,41361,50000,2989,50000,0,0,0,0,0.00,0.00,0.00,0.00
2013-07-10 10:40:00,2,49145,0,0.00,2,2,0,2,43969,50000,1861,50000,0,0,0,0,0.00,0.00,0.00,0.00
2013-07-10 10:50:00,2,49912,0,0.00,2,2,0,2,49032,50000,278,50000,0,0,0,0,0.00,0.00,0.00,0.00
2013-07-10 11:00:00,2,50000,0,0.00,2,2,0,2,50000,50000,0,50000,0,0,0,0,0.00,0.00,0.00,0.00
2013-07-10 11:10:00,2,49892,0,0.00,2,2,0,2,48916,50000,325,50000,0,0,0,0,0.00,0.00,0.00,0.00
2013-07-10 11:20:00,2,50000,0,0.00,2,2,0,2,50000,50000,0,50000,0,0,0,0,0.00,0.00,0.00,0.00
2013-07-10 11:30:00,2,48050,0,0.00,2,2,0,2,39919,50000,3591,50000,0,0,0,0,0.00,0.00,0.00,0.00
2013-07-10 11:40:00,2,49968,0,0.00,2,2,0,2,49683,50000,95,50000,0,0,0,0,0.00,0.00,0.00,0.00
2013-07-10 11:50:00,2,49924,0,0.00,2,2,0,2,49236,50000,229,50000,0,0,0,0,0.00,0.00,0.00,0.00
2013-07-10 12:00:00,2,50000,0,0.00,2,2,0,2,50000,50000,0,50000,0,0,0,0,0.00,0.00,0.00,0.00
2013-07-10 12:10:00,2,49936,0,0.00,2,2,0,2,49361,50000,192,50000,0,0,0,0,0.00,0.00,0.00,0.00
2013-07-10 12:20:00,2,50000,0,0.00,2,2,0,2,50000,50000,0,50000,0,0,0,0,0.00,0.00,0.00,0.00
2013-07-10 12:30:00,2,50000,0,0.00,2,2,0,2,50000,50000,0,50000,0,0,0,0,0.00,0.00,0.00,0.00
2013-07-10 12:40:00,2,50000,0,0.00,2,2,0,2,50000,50000,0,50000,0,0,0,0,0.00,0.00,0.00,0.00
2013-07-10 12:50:00,2,50000,0,0.00,2,2,0,2,50000,50000,0,50000,0,0,0,0,0.00,0.00,0.00,0.00
2013-07-10 13:00:00,2,50000,0,0.00,2,2,0,2,50000,50000,0,50000,0,0,0,0,0.00,0.00,0.00,0.00
2013-07-10 13:10:00,2,50000,0,0.00,2,2,0,2,50000,50000,0,50000,0,0,0,0,0.00,0.00,0.00,0.00
2013-07-10 13:20:00,2,50000,0,0.00,2,2,0,2,50000,50000,0,50000,0,0,0,0,0.00,0.00,0.00,0.00
2013-07-10 13:30:00,2,50000,0,0.00,2,2,0,2,50000,50000,0,50000,0,0,0,0,0.00,0.00,0.00,0.00
2013-07-10 13:40:00,2,50000,0,0.00,2,2,0,2,50000,50000,0,50000,0,0,0,0,0.00,0.00,0.00,0.00
2013-07-10 13:50:00,2,50000,0,0.00,2,2,0,2,50000,50000,0,50000,0,0,0,0,0.00,0.00,0.00,0.00
2013-07-10 14:00:00,2,49900,0,0.00,2,2,0,2,49003,50000,299,50000,0,0,0,0,0.00,0.00,0.00,0.00
2013-07-10 14:10:00,2,4834,3,0.00,2,2,0,2,2271,9472,2315,4210,0,4,2,4,0.00,0.00,0.00,0.00
2013-07-10 14:20:00,2,1794,4,0.00,2,2,0,2,640,4867,1175,1277,4,4,0,4,0.00,0.00,0.00,0.00
2013-07-10 14:30:00,2,418,5,0.00,2,2,0,2,330,592,83,409,4,5,0,5,0.00,0.00,0.00,0.00
2013-07-10 14:40:00,2,370,5,0.00,2,2,0,2,244,543,109,324,5,5,0,5,0.00,0.00,0.00,0.00
2013-07-10 14:50:00,2,184,22,0.00,2,2,0,2,143,248,29,178,5,34,14,34,0.00,0.00,0.00,0.00
2013-07-10 15:00:00,2,217,34,0.00,2,2,0,2,184,272,24,209,34,34,0,34,0.00,0.00,0.00,0.00
2013-07-10 15:10:00,2,339,34,0.00,2,2,0,2,222,552,92,304,34,34,0,34,0.00,0.00,0.00,0.00
2013-07-10 15:20:00,2,780,34,0.00,2,2,0,2,462,1150,210,702,34,34,0,34,0.00,0.00,0.00,0.00
2013-07-10 15:30:00,2,530,34,0.00,2,2,0,2,360,805,158,445,34,34,0,34,0.00,0.00,0.00,0.00
2013-07-10 15:40:00,2,512,34,0.00,2,2,0,2,310,808,164,455,34,34,0,34,0.00,0.00,0.00,0.00
2013-07-10 15:50:00,2,389,34,0.00,2,2,0,2,271,531,86,360,34,34,0,34,0.00,0.00,0.00,0.00
2013-07-10 16:00:00,2,283,34,0.00,2,2,0,2,234,310,26,292,34,34,0,34,0.00,0.00,0.00,0.00
2013-07-10 16:10:00,2,184,34,0.00,2,2,0,2,153,236,24,190,34,34,0,34,0.00,0.00,0.00,0.00
2013-07-10 16:20:00,2,204,41,0.03,2,2,0,2,177,227,16,202,40,41,0,41,0.00,0.05,0.02,0.05
2013-07-10 16:30:00,2,865,37,0.02,2,2,0,2,251,1957,569,640,34,41,3,34,0.00,0.10,0.03,0.00
2013-07-10 16:40:00,2,367,33,0.00,2,2,0,2,262,570,96,334,33,34,0,33,0.00,0.00,0.00,0.00
2013-07-10 16:50:00,2,881,32,0.00,2,2,0,2,294,1742,544,818,32,33,0,32,0.00,0.00,0.00,0.00
2013-07-10 17:00:00,2,848,32,0.00,2,2,0,2,555,1340,248,768,30,32,1,32,0.00,0.00,0.00,0.00
2013-07-10 17:10:00,2,801,32,0.00,2,2,0,2,372,1581,334,774,32,32,0,32,0.00,0.00,0.00,0.00
2013-07-10 17:20:00,2,334,32,0.00,2,2,0,2,283,401,39,331,32,33,0,32,0.00,0.00,0.00,0.00
2013-07-10 17:30:00,2,373,33,0.00,2,2,0,2,298,509,58,375,30,34,1,33,0.00,0.00,0.00,0.00
2013-07-10 17:40:00,2,259,34,0.00,2,2,0,2,216,320,36,252,34,34,0,34,0.00,0.00,0.00,0.00
2013-07-10 17:50:00,2,225,34,0.00,2,2,0,2,186,245,19,234,34,34,0,34,0.00,0.00,0.00,0.00
2013-07-10 18:00:00,2,203,34,0.00,2,2,0,2,174,229,17,206,34,34,0,34,0.00,0.00,0.00,0.00
2013-07-10 18:10:00,2,174,34,0.00,2,2,0,2,138,211,29,177,34,34,0,34,0.00,0.00,0.00,0.00
2013-07-10 18:20:00,2,170,34,0.00,2,2,0,2,139,203,23,176,34,34,0,34,0.00,0.00,0.00,0.00
2013-07-10 18:30:00,2,156,34,0.00,0,2,1,2,135,175,13,152,34,34,0,34,0.00,0.00,0.00,0.00
2013-07-10 18:40:00,0,154,34,0.00,0,0,0,0,138,178,14,150,34,34,0,34,0.00,0.00,0.00,0.00
2013-07-10 18:50:00,1,148,34,0.00,0,2,1,2,132,199,19,141,34,34,0,34,0.00,0.00,0.00,0.00
2013-07-10 19:00:00,0,142,33,0.00,0,0,0,0,128,167,12,141,33,34,0,33,0.00,0.00,0.00,0.00
2013-07-10 19:10:00,0,129,33,0.00,0,0,0,0,124,142,6,126,33,33,0,33,0.00,0.00,0.00,0.00
2013-07-10 19:20:00,0,127,33,0.00,0,2,1,0,122,133,3,127,33,33,0,33,0.00,0.00,0.00,0.00
2013-07-10 19:30:00,0,134,33,0.00,0,0,0,0,121,148,8,130,33,33,0,33,0.00,0.00,0.00,0.00
2013-07-10 19:40:00,1,139,33,0.00,0,2,1,2,124,165,16,129,33,33,0,33,0.00,0.00,0.00,0.00
2013-07-10 19:50:00,2,163,33,0.00,2,2,0,2,153,183,9,162,33,33,0,33,0.00,0.00,0.00,0.00
2013-07-10 20:00:00,2,183,32,0.00,2,2,0,2,172,192,7,184,30,33,1,33,0.00,0.00,0.00,0.00
2013-07-10 20:10:00,2,203,32,0.00,2,2,0,2,190,230,13,202,32,32,0,32,0.00,0.00,0.00,0.00
2013-07-10 20:20:00,2,445,32,0.00,2,2,0,2,228,655,156,446,32,32,0,32,0.00,0.00,0.00,0.00
2013-07-10 20:30:00,2,1242,42,0.15,2,2,0,2,552,4411,1083,896,32,61,13,36,0.00,0.55,0.18,0.05
2013-07-10 20:40:00,2,10733,47,0.07,2,2,0,2,1779,36599,9960,7558,20,61,10,51,0.00,0.35,0.11,0.03
2013-07-10 20:50:00,2,28976,20,0.00,2,2,0,2,1068,50000,17446,32377,20,20,0,20,0.00,0.00,0.00,0.00
2013-07-10 21:00:00,2,31741,20,0.00,2,2,0,2,2918,50000,16168,35966,20,20,0,20,0.00,0.00,0.00,0.00
2013-07-10 21:10:00,2,36629,34,0.04,2,2,0,2,15709,50000,9284,36888,20,61,18,20,0.00,0.25,0.08,0.00
2013-07-10 21:20:00,2,40038,53,0.15,2,2,0,2,24932,49956,7477,40478,51,61,4,51,0.00,0.45,0.16,0.12
2013-07-10 21:30:00,2,49156,54,0.15,2,2,0,2,44813,50000,1588,50000,51,61,5,51,0.00,0.45,0.12,0.10
2013-07-10 21:40:00,2,46500,52,0.25,2,2,0,2,42046,50000,2770,46788,51,61,3,51,0.05,0.55,0.16,0.23
2013-07-10 21:50:00,2,48872,61,0.27,2,2,0,2,42792,50000,2143,49886,61,61,0,61,0.00,1.70,0.50,0.08
2013-07-10 22:00:00,2,48861,55,0.07,2,2,0,2,45243,50000,1838,50000,0,61,18,61,0.00,0.15,0.06,0.05
2013-07-10 22:10:00,2,43063,6,0.02,2,2,0,2,37365,50000,4908,40883,0,61,18,0,0.00,0.20,0.06,0.00
2013-07-10 22:20:00,2,47892,38,0.03,2,2,0,2,43968,50000,2048,48892,0,61,25,51,0.00,0.15,0.04,0.03
2013-07-10 22:30:00,2,49423,0,0.00,2,2,0,2,45133,50000,1455,50000,0,0,0,0,0.00,0.00,0.00,0.00
2013-07-10 22:40:00,2,45782,12,0.12,2,2,0,2,37028,50000,4277,47039,0,61,24,0,0.00,0.90,0.28,0.00
2013-07-10 22:50:00,2,42688,55,0.60,2,2,0,2,34784,49134,4382,43318,51,61,5,51,0.10,2.10,0.58,0.43
2013-07-10 23:00:00,2,28485,61,1.17,2,2,0,2,18090,35581,5584,29854,61,61,0,61,0.30,3.00,0.85,0.82
2013-07-10 23:10:00,2,23057,61,3.15,2,2,0,2,15765,30601,4818,22224,61,61,0,61,1.00,5.30,1.45,3.20
2013-07-10 23:20:00,2,28319,61,2.75,2,2,0,2,19647,45756,7943,25094,61,61,0,61,0.20,6.80,2.41,1.68
2013-07-10 23:30:00,2,42005,37,0.33,2,2,0,2,32257,49456,4940,42787,0,61,30,61,0.00,3.00,0.89,0.05
2013-07-10 23:40:00,2,48235,0,0.00,2,2,0,2,39369,50000,3213,49999,0,0,0,0,0.00,0.00,0.00,0.00
2013-07-10 23:50:00,2,49111,0,0.00,2,2,0,2,44376,50000,1673,49814,0,0,0,0,0.00,0.00,0.00,0.00
